owner,sensor,date,latitude,longitude,vertical_datum,direction_of_sea_water_velocity,sea_water_speed,upward_sea_water_velocity,qcFlag 
TABS,ioos:station:wmo:42051:1,2013-04-01T00:00:00Z,29.6350,-93.6417,2.0,257.9421683,32.16970625,-99999.0,'11111222,11111222,99999999' 
TABS,ioos:station:wmo:42051:1,2013-04-01T00:30:00Z,29.6350,-93.6417,2.0,267.0135187,34.93743694,-99999.0,'11111222,11111222,99999999' 
TABS,ioos:station:wmo:42051:1,2013-04-01T01:00:00Z,29.6350,-93.6417,2.0,275.8855582,28.08804016,-99999.0,'11111222,11111222,99999999' 
TABS,ioos:station:wmo:42051:1,2013-04-01T01:30:00Z,29.6350,-93.6417,2.0,278.6783573,28.10170813,-99999.0,'11111222,11111222,99999999' 
TABS,ioos:station:wmo:42051:1,2013-04-01T02:00:00Z,29.6350,-93.6417,2.0,280.2560902,33.36304093,-99999.0,'11111222,11111222,99999999' 
TABS,ioos:station:wmo:42051:1,2013-04-01T02:30:00Z,29.6350,-93.6417,2.0,279.0929545,29.80451308,-99999.0,'11111222,11111222,99999999' 
TABS,ioos:station:wmo:42051:1,2013-04-01T03:00:00Z,29.6350,-93.6417,2.0,275.3970328,27.96395001,-99999.0,'11111222,11111222,99999999' 
TABS,ioos:station:wmo:42051:1,2013-04-01T03:30:00Z,29.6350,-93.6417,2.0,288.5628334,24.15669886,-99999.0,'11111222,11111222,99999999' 
TABS,ioos:station:wmo:42051:1,2013-04-01T04:00:00Z,29.6350,-93.6417,2.0,290.1386371,18.29869941,-99999.0,'11111222,11111222,99999999' 
TABS,ioos:station:wmo:42051:1,2013-04-01T04:30:00Z,29.6350,-93.6417,2.0,261.1073661,12.22695792,-99999.0,'11111222,11111222,99999999' 
TABS,ioos:station:wmo:42051:1,2013-04-01T05:00:00Z,29.6350,-93.6417,2.0,255.5788397,12.6485177,-99999.0,'11111222,11111222,99999999' 
TABS,ioos:station:wmo:42051:1,2013-04-01T05:30:00Z,29.6350,-93.6417,2.0,271.049558,18.02302139,-99999.0,'11111222,11111222,99999999' 
TABS,ioos:station:wmo:42051:1,2013-04-01T06:00:00Z,29.6350,-93.6417,2.0,288.0060772,17.72822608,-99999.0,'11111222,11111222,99999999' 
TABS,ioos:station:wmo:42051:1,2013-04-01T06:30:00Z,29.6350,-93.6417,2.0,261.9524928,17.57303616,-99999.0,'11111222,11111222,99999999' 
TABS,ioos:station:wmo:42051:1,2013-04-01T07:00:00Z,29.6350,-93.6417,2.0,268.8801515,17.40332152,-99999.0,'11111222,11111222,99999999' 
TABS,ioos:station:wmo:42051:1,2013-04-01T07:30:00Z,29.6350,-93.6417,2.0,275.8423284,18.66694672,-99999.0,'11111222,11111222,99999999' 
TABS,ioos:station:wmo:42051:1,2013-04-01T08:00:00Z,29.6350,-93.6417,2.0,264.349935,17.77634946,-99999.0,'11111222,11111222,99999999' 
TABS,ioos:station:wmo:42051:1,2013-04-01T08:30:00Z,29.6350,-93.6417,2.0,248.1716702,24.04383497,-99999.0,'11111222,11111222,99999999' 
TABS,ioos:station:wmo:42051:1,2013-04-01T09:00:00Z,29.6350,-93.6417,2.0,247.3431851,26.50539002,-99999.0,'11111222,11111222,99999999' 
TABS,ioos:station:wmo:42051:1,2013-04-01T09:30:00Z,29.6350,-93.6417,2.0,252.0032451,29.74525508,-99999.0,'11111222,11111222,99999999' 
TABS,ioos:station:wmo:42051:1,2013-04-01T10:00:00Z,29.6350,-93.6417,2.0,254.424172,28.08120546,-99999.0,'11111222,11111222,99999999' 
TABS,ioos:station:wmo:42051:1,2013-04-01T10:30:00Z,29.6350,-93.6417,2.0,250.0828989,24.33553985,-99999.0,'11111222,11111222,99999999' 
TABS,ioos:station:wmo:42051:1,2013-04-01T11:00:00Z,29.6350,-93.6417,2.0,251.2813678,26.86071481,-99999.0,'11111222,11111222,99999999' 
TABS,ioos:station:wmo:42051:1,2013-04-01T11:30:00Z,29.6350,-93.6417,2.0,249.4460016,27.71417327,-99999.0,'11111222,11111222,99999999' 
TABS,ioos:station:wmo:42051:1,2013-04-01T12:00:00Z,29.6350,-93.6417,2.0,252.8900431,30.76138001,-99999.0,'11111222,11111222,99999999' 
TABS,ioos:station:wmo:42051:1,2013-04-01T12:30:00Z,29.6350,-93.6417,2.0,259.656419,29.4078782,-99999.0,'11111222,11111222,99999999' 
TABS,ioos:station:wmo:42051:1,2013-04-01T13:00:00Z,29.6350,-93.6417,2.0,258.0882309,27.27733491,-99999.0,'11111222,11111222,99999999' 
TABS,ioos:station:wmo:42051:1,2013-04-01T13:30:00Z,29.6350,-93.6417,2.0,264.3887683,26.2859373,-99999.0,'11111222,11111222,99999999' 
TABS,ioos:station:wmo:42051:1,2013-04-01T14:00:00Z,29.6350,-93.6417,2.0,265.5667057,20.57153859,-99999.0,'11111222,11111222,99999999' 
TABS,ioos:station:wmo:42051:1,2013-04-01T14:30:00Z,29.6350,-93.6417,2.0,258.4815894,24.84023349,-99999.0,'11111222,11111222,99999999' 
TABS,ioos:station:wmo:42051:1,2013-04-01T15:00:00Z,29.6350,-93.6417,2.0,270.2052099,25.18016084,-99999.0,'11111222,11111222,99999999' 
TABS,ioos:station:wmo:42051:1,2013-04-01T15:30:00Z,29.6350,-93.6417,2.0,274.1919578,23.12184465,-99999.0,'11111222,11111222,99999999' 
TABS,ioos:station:wmo:42051:1,2013-04-01T16:00:00Z,29.6350,-93.6417,2.0,263.096364,23.71189786,-99999.0,'11111222,11111222,99999999' 
TABS,ioos:station:wmo:42051:1,2013-04-01T16:30:00Z,29.6350,-93.6417,2.0,261.6583684,28.40042957,-99999.0,'11111222,11111222,99999999' 
TABS,ioos:station:wmo:42051:1,2013-04-01T17:00:00Z,29.6350,-93.6417,2.0,270.6796262,28.68201527,-99999.0,'11111222,11111222,99999999' 
TABS,ioos:station:wmo:42051:1,2013-04-01T17:30:00Z,29.6350,-93.6417,2.0,263.2939834,31.68676222,-99999.0,'11111222,11111222,99999999' 
TABS,ioos:station:wmo:42051:1,2013-04-01T18:00:00Z,29.6350,-93.6417,2.0,255.7678845,29.85630922,-99999.0,'11111222,11111222,99999999' 
TABS,ioos:station:wmo:42051:1,2013-04-01T18:30:00Z,29.6350,-93.6417,2.0,262.4076574,28.00549232,-99999.0,'11111222,11111222,99999999' 
TABS,ioos:station:wmo:42051:1,2013-04-01T19:00:00Z,29.6350,-93.6417,2.0,269.1846821,25.31256012,-99999.0,'11111222,11111222,99999999' 
TABS,ioos:station:wmo:42051:1,2013-04-01T19:30:00Z,29.6350,-93.6417,2.0,267.1555833,21.7668096,-99999.0,'11111222,11111222,99999999' 
TABS,ioos:station:wmo:42051:1,2013-04-01T20:00:00Z,29.6350,-93.6417,2.0,267.2796609,17.06922963,-99999.0,'11111222,11111222,99999999' 
TABS,ioos:station:wmo:42051:1,2013-04-01T20:30:00Z,29.6350,-93.6417,2.0,276.7295313,15.61758624,-99999.0,'11111222,11111222,99999999' 
TABS,ioos:station:wmo:42051:1,2013-04-01T21:00:00Z,29.6350,-93.6417,2.0,266.3907584,14.29835305,-99999.0,'11111222,11111222,99999999' 
TABS,ioos:station:wmo:42051:1,2013-04-01T21:30:00Z,29.6350,-93.6417,2.0,272.0482205,17.07090214,-99999.0,'11111222,11111222,99999999' 
TABS,ioos:station:wmo:42051:1,2013-04-01T22:00:00Z,29.6350,-93.6417,2.0,275.4561113,17.67004527,-99999.0,'11111222,11111222,99999999' 
TABS,ioos:station:wmo:42051:1,2013-04-01T22:30:00Z,29.6350,-93.6417,2.0,275.0915599,17.57935437,-99999.0,'11111222,11111222,99999999' 
TABS,ioos:station:wmo:42051:1,2013-04-01T23:00:00Z,29.6350,-93.6417,2.0,277.7302299,20.44578441,-99999.0,'11111222,11111222,99999999' 
TABS,ioos:station:wmo:42051:1,2013-04-01T23:30:00Z,29.6350,-93.6417,2.0,282.986579,20.38126591,-99999.0,'11111222,11111222,99999999' 
TABS,ioos:station:wmo:42051:1,2013-04-02T00:00:00Z,29.6350,-93.6417,2.0,287.7311228,17.23887757,-99999.0,'11111222,11111222,99999999' 
TABS,ioos:station:wmo:42051:1,2013-04-02T00:30:00Z,29.6350,-93.6417,2.0,304.2920095,13.47163687,-99999.0,'11111222,11111222,99999999' 
TABS,ioos:station:wmo:42051:1,2013-04-02T01:00:00Z,29.6350,-93.6417,2.0,282.0831832,10.03225299,-99999.0,'11111222,11111222,99999999' 
TABS,ioos:station:wmo:42051:1,2013-04-02T01:30:00Z,29.6350,-93.6417,2.0,229.3715807,6.956960543,-99999.0,'11133222,11111222,99999999' 
TABS,ioos:station:wmo:42051:1,2013-04-02T02:00:00Z,29.6350,-93.6417,2.0,220.2591848,11.63635682,-99999.0,'11111222,11111222,99999999' 
TABS,ioos:station:wmo:42051:1,2013-04-02T02:30:00Z,29.6350,-93.6417,2.0,235.9203265,6.531745555,-99999.0,'11133222,11111222,99999999' 
TABS,ioos:station:wmo:42051:1,2013-04-02T03:00:00Z,29.6350,-93.6417,2.0,218.9521614,8.255452743,-99999.0,'11133222,11111222,99999999' 
TABS,ioos:station:wmo:42051:1,2013-04-02T03:30:00Z,29.6350,-93.6417,2.0,209.5572738,10.62239144,-99999.0,'11111222,11111222,99999999' 
TABS,ioos:station:wmo:42051:1,2013-04-02T04:00:00Z,29.6350,-93.6417,2.0,190.7276646,12.35595403,-99999.0,'11111222,11111222,99999999' 
TABS,ioos:station:wmo:42051:1,2013-04-02T04:30:00Z,29.6350,-93.6417,2.0,196.2432617,13.72800058,-99999.0,'11111222,11111222,99999999' 
TABS,ioos:station:wmo:42051:1,2013-04-02T05:00:00Z,29.6350,-93.6417,2.0,202.1257658,19.00993688,-99999.0,'11111222,11111222,99999999' 
TABS,ioos:station:wmo:42051:1,2013-04-02T05:30:00Z,29.6350,-93.6417,2.0,218.7393381,15.69235483,-99999.0,'11111222,11111222,99999999' 
TABS,ioos:station:wmo:42051:1,2013-04-02T06:00:00Z,29.6350,-93.6417,2.0,215.0508443,15.88,-99999.0,'11111222,11111222,99999999' 
TABS,ioos:station:wmo:42051:1,2013-04-02T06:30:00Z,29.6350,-93.6417,2.0,192.8155613,13.20906128,-99999.0,'11111222,11111222,99999999' 
TABS,ioos:station:wmo:42051:1,2013-04-02T07:00:00Z,29.6350,-93.6417,2.0,182.2007244,13.27979669,-99999.0,'11111222,11111222,99999999' 
TABS,ioos:station:wmo:42051:1,2013-04-02T07:30:00Z,29.6350,-93.6417,2.0,200.3359273,13.72551638,-99999.0,'11111222,11111222,99999999' 
TABS,ioos:station:wmo:42051:1,2013-04-02T08:00:00Z,29.6350,-93.6417,2.0,202.1156378,12.85588192,-99999.0,'11111222,11111222,99999999' 
TABS,ioos:station:wmo:42051:1,2013-04-02T08:30:00Z,29.6350,-93.6417,2.0,213.6510999,12.32544117,-99999.0,'11111222,11111222,99999999' 
TABS,ioos:station:wmo:42051:1,2013-04-02T09:00:00Z,29.6350,-93.6417,2.0,206.3693052,11.79756331,-99999.0,'11111222,11111222,99999999' 
TABS,ioos:station:wmo:42051:1,2013-04-02T09:30:00Z,29.6350,-93.6417,2.0,221.4400011,9.110971408,-99999.0,'11133222,11111222,99999999' 
TABS,ioos:station:wmo:42051:1,2013-04-02T10:00:00Z,29.6350,-93.6417,2.0,224.5059926,15.59228335,-99999.0,'11111222,11111222,99999999' 
TABS,ioos:station:wmo:42051:1,2013-04-02T10:30:00Z,29.6350,-93.6417,2.0,241.4325612,17.92184421,-99999.0,'11111222,11111222,99999999' 
TABS,ioos:station:wmo:42051:1,2013-04-02T11:00:00Z,29.6350,-93.6417,2.0,251.3622161,17.8986033,-99999.0,'11111222,11111222,99999999' 
TABS,ioos:station:wmo:42051:1,2013-04-02T11:30:00Z,29.6350,-93.6417,2.0,253.7835514,21.80760647,-99999.0,'11111222,11111222,99999999' 
TABS,ioos:station:wmo:42051:1,2013-04-02T12:00:00Z,29.6350,-93.6417,2.0,257.9338951,20.66655511,-99999.0,'11111222,11111222,99999999' 
TABS,ioos:station:wmo:42051:1,2013-04-02T12:30:00Z,29.6350,-93.6417,2.0,258.468592,25.41291797,-99999.0,'11111222,11111222,99999999' 
TABS,ioos:station:wmo:42051:1,2013-04-02T13:00:00Z,29.6350,-93.6417,2.0,257.6475208,30.94636166,-99999.0,'11111222,11111222,99999999' 
TABS,ioos:station:wmo:42051:1,2013-04-02T13:30:00Z,29.6350,-93.6417,2.0,271.5389836,29.05047332,-99999.0,'11111222,11111222,99999999' 
TABS,ioos:station:wmo:42051:1,2013-04-02T14:00:00Z,29.6350,-93.6417,2.0,264.9220617,24.40577186,-99999.0,'11111222,11111222,99999999' 
TABS,ioos:station:wmo:42051:1,2013-04-02T14:30:00Z,29.6350,-93.6417,2.0,277.1286158,22.24190864,-99999.0,'11111222,11111222,99999999' 
TABS,ioos:station:wmo:42051:1,2013-04-02T15:00:00Z,29.6350,-93.6417,2.0,277.2284757,23.44632381,-99999.0,'11111222,11111222,99999999' 
TABS,ioos:station:wmo:42051:1,2013-04-02T15:30:00Z,29.6350,-93.6417,2.0,278.3329615,14.00787279,-99999.0,'11111222,11111222,99999999' 
TABS,ioos:station:wmo:42051:1,2013-04-02T16:00:00Z,29.6350,-93.6417,2.0,274.4473311,13.67115577,-99999.0,'11111222,11111222,99999999' 
TABS,ioos:station:wmo:42051:1,2013-04-02T16:30:00Z,29.6350,-93.6417,2.0,261.4688334,22.85283571,-99999.0,'11111222,11111222,99999999' 
TABS,ioos:station:wmo:42051:1,2013-04-02T17:00:00Z,29.6350,-93.6417,2.0,270.9841415,24.46360562,-99999.0,'11111222,11111222,99999999' 
TABS,ioos:station:wmo:42051:1,2013-04-02T17:30:00Z,29.6350,-93.6417,2.0,263.0962201,28.5368849,-99999.0,'11111222,11111222,99999999' 
TABS,ioos:station:wmo:42051:1,2013-04-02T18:00:00Z,29.6350,-93.6417,2.0,265.5719799,28.88620605,-99999.0,'11111222,11111222,99999999' 
TABS,ioos:station:wmo:42051:1,2013-04-02T18:30:00Z,29.6350,-93.6417,2.0,265.0070743,31.59988766,-99999.0,'11111222,11111222,99999999' 
TABS,ioos:station:wmo:42051:1,2013-04-02T19:00:00Z,29.6350,-93.6417,2.0,266.2161177,28.64242483,-99999.0,'11111222,11111222,99999999' 
TABS,ioos:station:wmo:42051:1,2013-04-02T19:30:00Z,29.6350,-93.6417,2.0,263.779108,23.25693015,-99999.0,'11111222,11111222,99999999' 
TABS,ioos:station:wmo:42051:1,2013-04-02T20:00:00Z,29.6350,-93.6417,2.0,242.7909797,21.49891393,-99999.0,'11111222,11111222,99999999' 
TABS,ioos:station:wmo:42051:1,2013-04-02T20:30:00Z,29.6350,-93.6417,2.0,234.5346566,15.58068355,-99999.0,'11111222,11111222,99999999' 
TABS,ioos:station:wmo:42051:1,2013-04-02T21:00:00Z,29.6350,-93.6417,2.0,241.2423601,37.06088234,-99999.0,'11111222,11111222,99999999' 
TABS,ioos:station:wmo:42051:1,2013-04-02T21:30:00Z,29.6350,-93.6417,2.0,251.9727336,35.96549596,-99999.0,'11111222,11111222,99999999' 
TABS,ioos:station:wmo:42051:1,2013-04-02T22:00:00Z,29.6350,-93.6417,2.0,270.1139224,25.24004952,-99999.0,'11111222,11111222,99999999' 
TABS,ioos:station:wmo:42051:1,2013-04-02T22:30:00Z,29.6350,-93.6417,2.0,243.3851546,25.91603751,-99999.0,'11111222,11111222,99999999' 
TABS,ioos:station:wmo:42051:1,2013-04-02T23:00:00Z,29.6350,-93.6417,2.0,262.7629632,31.19851599,-99999.0,'11111222,11111222,99999999' 
TABS,ioos:station:wmo:42051:1,2013-04-02T23:30:00Z,29.6350,-93.6417,2.0,268.7819208,30.11680096,-99999.0,'11111222,11111222,99999999' 
TABS,ioos:station:wmo:42051:1,2013-04-03T00:00:00Z,29.6350,-93.6417,2.0,267.4836884,32.120962,-99999.0,'11111222,11111222,99999999' 
TABS,ioos:station:wmo:42051:1,2013-04-03T00:30:00Z,29.6350,-93.6417,2.0,268.3117653,32.25399355,-99999.0,'11111222,11111222,99999999' 
TABS,ioos:station:wmo:42051:1,2013-04-03T01:00:00Z,29.6350,-93.6417,2.0,258.6168997,29.33703632,-99999.0,'11111222,11111222,99999999' 
TABS,ioos:station:wmo:42051:1,2013-04-03T01:30:00Z,29.6350,-93.6417,2.0,256.7467605,31.93037425,-99999.0,'11111222,11111222,99999999' 
TABS,ioos:station:wmo:42051:1,2013-04-03T02:00:00Z,29.6350,-93.6417,2.0,246.1330482,34.57664674,-99999.0,'11111222,11111222,99999999' 
TABS,ioos:station:wmo:42051:1,2013-04-03T02:30:00Z,29.6350,-93.6417,2.0,258.0528575,33.52616292,-99999.0,'11111222,11111222,99999999' 
TABS,ioos:station:wmo:42051:1,2013-04-03T03:00:00Z,29.6350,-93.6417,2.0,256.6474493,30.26817801,-99999.0,'11111222,11111222,99999999' 
TABS,ioos:station:wmo:42051:1,2013-04-03T03:30:00Z,29.6350,-93.6417,2.0,258.3380121,34.82892045,-99999.0,'11111222,11111222,99999999' 
TABS,ioos:station:wmo:42051:1,2013-04-03T04:00:00Z,29.6350,-93.6417,2.0,252.8364162,43.88425002,-99999.0,'11111222,11111222,99999999' 
TABS,ioos:station:wmo:42051:1,2013-04-03T04:30:00Z,29.6350,-93.6417,2.0,240.4195787,36.22077305,-99999.0,'11111222,11111222,99999999' 
TABS,ioos:station:wmo:42051:1,2013-04-03T05:00:00Z,29.6350,-93.6417,2.0,247.4807322,30.99312504,-99999.0,'11111222,11111222,99999999' 
TABS,ioos:station:wmo:42051:1,2013-04-03T05:30:00Z,29.6350,-93.6417,2.0,252.6765396,39.76364168,-99999.0,'11111222,11111222,99999999' 
TABS,ioos:station:wmo:42051:1,2013-04-03T06:00:00Z,29.6350,-93.6417,2.0,251.5228909,30.35471133,-99999.0,'11111222,11111222,99999999' 
TABS,ioos:station:wmo:42051:1,2013-04-03T06:30:00Z,29.6350,-93.6417,2.0,250.8982353,26.37201737,-99999.0,'11111222,11111222,99999999' 
TABS,ioos:station:wmo:42051:1,2013-04-03T07:00:00Z,29.6350,-93.6417,2.0,242.7728916,20.52400058,-99999.0,'11111222,11111222,99999999' 
TABS,ioos:station:wmo:42051:1,2013-04-03T07:30:00Z,29.6350,-93.6417,2.0,232.365871,26.25233323,-99999.0,'11111222,11111222,99999999' 
TABS,ioos:station:wmo:42051:1,2013-04-03T08:00:00Z,29.6350,-93.6417,2.0,217.7861658,21.00468757,-99999.0,'11111222,11111222,99999999' 
TABS,ioos:station:wmo:42051:1,2013-04-03T08:30:00Z,29.6350,-93.6417,2.0,234.6103415,31.42649201,-99999.0,'11111222,11111222,99999999' 
TABS,ioos:station:wmo:42051:1,2013-04-03T09:00:00Z,29.6350,-93.6417,2.0,241.7723408,43.32192286,-99999.0,'11111222,11111222,99999999' 
TABS,ioos:station:wmo:42051:1,2013-04-03T09:30:00Z,29.6350,-93.6417,2.0,250.7393088,38.19795282,-99999.0,'11111222,11111222,99999999' 
TABS,ioos:station:wmo:42051:1,2013-04-03T10:00:00Z,29.6350,-93.6417,2.0,256.6106247,37.78703614,-99999.0,'11111222,11111222,99999999' 
TABS,ioos:station:wmo:42051:1,2013-04-03T10:30:00Z,29.6350,-93.6417,2.0,248.5779498,33.62273636,-99999.0,'11111222,11111222,99999999' 
TABS,ioos:station:wmo:42051:1,2013-04-03T11:00:00Z,29.6350,-93.6417,2.0,247.4647888,38.87850434,-99999.0,'11111222,11111222,99999999' 
TABS,ioos:station:wmo:42051:1,2013-04-03T11:30:00Z,29.6350,-93.6417,2.0,255.9342548,38.18481374,-99999.0,'11111222,11111222,99999999' 
TABS,ioos:station:wmo:42051:1,2013-04-03T12:00:00Z,29.6350,-93.6417,2.0,262.770243,33.37532172,-99999.0,'11111222,11111222,99999999' 
TABS,ioos:station:wmo:42051:1,2013-04-03T12:30:00Z,29.6350,-93.6417,2.0,244.4828919,28.59962412,-99999.0,'11111222,11111222,99999999' 
TABS,ioos:station:wmo:42051:1,2013-04-03T13:00:00Z,29.6350,-93.6417,2.0,254.1526524,38.3785982,-99999.0,'11111222,11111222,99999999' 
TABS,ioos:station:wmo:42051:1,2013-04-03T13:30:00Z,29.6350,-93.6417,2.0,235.80789,47.51189325,-99999.0,'11111222,11111222,99999999' 
TABS,ioos:station:wmo:42051:1,2013-04-03T14:00:00Z,29.6350,-93.6417,2.0,281.285995,36.94436087,-99999.0,'11111222,11111222,99999999' 
TABS,ioos:station:wmo:42051:1,2013-04-03T14:30:00Z,29.6350,-93.6417,2.0,293.4831564,24.61894596,-99999.0,'11111222,11111222,99999999' 
TABS,ioos:station:wmo:42051:1,2013-04-03T15:00:00Z,29.6350,-93.6417,2.0,300.1314616,17.11222078,-99999.0,'11111222,11111222,99999999' 
TABS,ioos:station:wmo:42051:1,2013-04-03T15:30:00Z,29.6350,-93.6417,2.0,262.8281909,12.25587614,-99999.0,'11111222,11111222,99999999' 
TABS,ioos:station:wmo:42051:1,2013-04-03T16:00:00Z,29.6350,-93.6417,2.0,290.0782768,11.36040932,-99999.0,'11111222,11111222,99999999' 
TABS,ioos:station:wmo:42051:1,2013-04-03T16:30:00Z,29.6350,-93.6417,2.0,273.8925432,17.08941485,-99999.0,'11111222,11111222,99999999' 
TABS,ioos:station:wmo:42051:1,2013-04-03T17:00:00Z,29.6350,-93.6417,2.0,252.4119145,28.22957669,-99999.0,'11111222,11111222,99999999' 
TABS,ioos:station:wmo:42051:1,2013-04-03T17:30:00Z,29.6350,-93.6417,2.0,253.9350062,27.06695772,-99999.0,'11111222,11111222,99999999' 
TABS,ioos:station:wmo:42051:1,2013-04-03T18:00:00Z,29.6350,-93.6417,2.0,264.6746408,30.60206692,-99999.0,'11111222,11111222,99999999' 
TABS,ioos:station:wmo:42051:1,2013-04-03T18:30:00Z,29.6350,-93.6417,2.0,257.1326967,29.59308365,-99999.0,'11111222,11111222,99999999' 
TABS,ioos:station:wmo:42051:1,2013-04-03T19:00:00Z,29.6350,-93.6417,2.0,246.2551424,29.35488545,-99999.0,'11111222,11111222,99999999' 
TABS,ioos:station:wmo:42051:1,2013-04-03T19:30:00Z,29.6350,-93.6417,2.0,252.1129795,22.14011969,-99999.0,'11111222,11111222,99999999' 
TABS,ioos:station:wmo:42051:1,2013-04-03T20:00:00Z,29.6350,-93.6417,2.0,248.1577461,13.14351932,-99999.0,'11111222,11111222,99999999' 
TABS,ioos:station:wmo:42051:1,2013-04-03T20:30:00Z,29.6350,-93.6417,2.0,245.8134177,19.50190247,-99999.0,'11111222,11111222,99999999' 
TABS,ioos:station:wmo:42051:1,2013-04-03T21:00:00Z,29.6350,-93.6417,2.0,243.8726122,41.53394034,-99999.0,'11111222,11111222,99999999' 
TABS,ioos:station:wmo:42051:1,2013-04-03T21:30:00Z,29.6350,-93.6417,2.0,239.2105408,50.63690749,-99999.0,'11111222,11111222,99999999' 
TABS,ioos:station:wmo:42051:1,2013-04-03T22:00:00Z,29.6350,-93.6417,2.0,246.6373565,42.74435752,-99999.0,'11111222,11111222,99999999' 
TABS,ioos:station:wmo:42051:1,2013-04-03T22:30:00Z,29.6350,-93.6417,2.0,251.5317692,38.54500876,-99999.0,'11111222,11111222,99999999' 
TABS,ioos:station:wmo:42051:1,2013-04-03T23:00:00Z,29.6350,-93.6417,2.0,259.4204326,45.20844611,-99999.0,'11111222,11111222,99999999' 
TABS,ioos:station:wmo:42051:1,2013-04-03T23:30:00Z,29.6350,-93.6417,2.0,279.1111673,45.28126544,-99999.0,'11111222,11111222,99999999' 
TABS,ioos:station:wmo:42051:1,2013-04-04T00:00:00Z,29.6350,-93.6417,2.0,260.3187392,52.15267011,-99999.0,'11111222,11111222,99999999' 
TABS,ioos:station:wmo:42051:1,2013-04-04T00:30:00Z,29.6350,-93.6417,2.0,272.6048916,54.35614869,-99999.0,'11111222,11111222,99999999' 
TABS,ioos:station:wmo:42051:1,2013-04-04T01:00:00Z,29.6350,-93.6417,2.0,261.4932688,69.56525066,-99999.0,'11111222,11111222,99999999' 
TABS,ioos:station:wmo:42051:1,2013-04-04T01:30:00Z,29.6350,-93.6417,2.0,269.0921809,50.51633498,-99999.0,'11111222,11111222,99999999' 
TABS,ioos:station:wmo:42051:1,2013-04-04T02:00:00Z,29.6350,-93.6417,2.0,258.7150926,61.88641369,-99999.0,'11111222,11111222,99999999' 
TABS,ioos:station:wmo:42051:1,2013-04-04T02:30:00Z,29.6350,-93.6417,2.0,260.2582353,52.65926414,-99999.0,'11111222,11111222,99999999' 
TABS,ioos:station:wmo:42051:1,2013-04-04T03:00:00Z,29.6350,-93.6417,2.0,263.7185118,48.16915299,-99999.0,'11111222,11111222,99999999' 
TABS,ioos:station:wmo:42051:1,2013-04-04T03:30:00Z,29.6350,-93.6417,2.0,256.9097162,64.90653588,-99999.0,'11111222,11111222,99999999' 
TABS,ioos:station:wmo:42051:1,2013-04-04T04:00:00Z,29.6350,-93.6417,2.0,260.9660801,47.44852052,-99999.0,'11111222,11111222,99999999' 
TABS,ioos:station:wmo:42051:1,2013-04-04T04:30:00Z,29.6350,-93.6417,2.0,253.0242106,63.19332322,-99999.0,'11111222,11111222,99999999' 
TABS,ioos:station:wmo:42051:1,2013-04-04T05:00:00Z,29.6350,-93.6417,2.0,255.6108121,61.48879573,-99999.0,'11111222,11111222,99999999' 
TABS,ioos:station:wmo:42051:1,2013-04-04T05:30:00Z,29.6350,-93.6417,2.0,254.235472,51.23712033,-99999.0,'11111222,11111222,99999999' 
TABS,ioos:station:wmo:42051:1,2013-04-04T06:00:00Z,29.6350,-93.6417,2.0,248.296277,52.08204777,-99999.0,'11111222,11111222,99999999' 
TABS,ioos:station:wmo:42051:1,2013-04-04T06:30:00Z,29.6350,-93.6417,2.0,250.8479584,44.74656747,-99999.0,'11111222,11111222,99999999' 
TABS,ioos:station:wmo:42051:1,2013-04-04T07:00:00Z,29.6350,-93.6417,2.0,251.4500117,41.08439363,-99999.0,'11111222,11111222,99999999' 
TABS,ioos:station:wmo:42051:1,2013-04-04T07:30:00Z,29.6350,-93.6417,2.0,254.3506043,45.67299859,-99999.0,'11111222,11111222,99999999' 
TABS,ioos:station:wmo:42051:1,2013-04-04T08:00:00Z,29.6350,-93.6417,2.0,251.9089095,48.94977937,-99999.0,'11111222,11111222,99999999' 
TABS,ioos:station:wmo:42051:1,2013-04-04T08:30:00Z,29.6350,-93.6417,2.0,245.0058665,41.91520249,-99999.0,'11111222,11111222,99999999' 
TABS,ioos:station:wmo:42051:1,2013-04-04T09:00:00Z,29.6350,-93.6417,2.0,251.041013,38.75216897,-99999.0,'11111222,11111222,99999999' 
TABS,ioos:station:wmo:42051:1,2013-04-04T09:30:00Z,29.6350,-93.6417,2.0,247.314731,39.98310268,-99999.0,'11111222,11111222,99999999' 
TABS,ioos:station:wmo:42051:1,2013-04-04T10:00:00Z,29.6350,-93.6417,2.0,254.984896,40.76163024,-99999.0,'11111222,11111222,99999999' 
TABS,ioos:station:wmo:42051:1,2013-04-04T10:30:00Z,29.6350,-93.6417,2.0,250.0278623,43.15531485,-99999.0,'11111222,11111222,99999999' 
TABS,ioos:station:wmo:42051:1,2013-04-04T11:00:00Z,29.6350,-93.6417,2.0,248.5089686,43.48305992,-99999.0,'11111222,11111222,99999999' 
TABS,ioos:station:wmo:42051:1,2013-04-04T11:30:00Z,29.6350,-93.6417,2.0,255.026604,47.91689159,-99999.0,'11111222,11111222,99999999' 
TABS,ioos:station:wmo:42051:1,2013-04-04T12:00:00Z,29.6350,-93.6417,2.0,250.7254617,44.26082354,-99999.0,'11111222,11111222,99999999' 
TABS,ioos:station:wmo:42051:1,2013-04-04T12:30:00Z,29.6350,-93.6417,2.0,246.4234304,38.2530208,-99999.0,'11111222,11111222,99999999' 
TABS,ioos:station:wmo:42051:1,2013-04-04T13:00:00Z,29.6350,-93.6417,2.0,246.5651333,39.22550318,-99999.0,'11111222,11111222,99999999' 
TABS,ioos:station:wmo:42051:1,2013-04-04T13:30:00Z,29.6350,-93.6417,2.0,255.0120522,42.07117778,-99999.0,'11111222,11111222,99999999' 
TABS,ioos:station:wmo:42051:1,2013-04-04T14:00:00Z,29.6350,-93.6417,2.0,258.6389061,44.2673514,-99999.0,'11111222,11111222,99999999' 
TABS,ioos:station:wmo:42051:1,2013-04-04T14:30:00Z,29.6350,-93.6417,2.0,256.2759904,44.00631886,-99999.0,'11111222,11111222,99999999' 
TABS,ioos:station:wmo:42051:1,2013-04-04T15:00:00Z,29.6350,-93.6417,2.0,243.8070742,45.40208365,-99999.0,'11111222,11111222,99999999' 
TABS,ioos:station:wmo:42051:1,2013-04-04T15:30:00Z,29.6350,-93.6417,2.0,241.2436004,39.88930934,-99999.0,'11111222,11111222,99999999' 
TABS,ioos:station:wmo:42051:1,2013-04-04T16:00:00Z,29.6350,-93.6417,2.0,239.3711528,34.58499675,-99999.0,'11111222,11111222,99999999' 